Time,TemperatureF,DewpointF,PressureIn,WindDirection,WindDirectionDegrees,WindSpeedMPH,WindSpeedGustMPH,Humidity,HourlyPrecipIn,Conditions,Clouds,dailyrainin,SoftwareType,DateUTC
2013-02-17 00:00:00,30.5,28.7,29.60,North,351,5.0,7.0,93,0.00,,---,0.02,VWS V14.00,2013-02-17 05:00:00,
2013-02-17 00:05:00,30.6,28.8,29.60,East,98,1.0,5.0,93,0.00,,---,0.00,VWS V14.00,2013-02-17 05:05:00,
2013-02-17 00:10:00,30.6,28.8,29.60,North,360,2.0,2.0,93,0.00,,---,0.00,VWS V14.00,2013-02-17 05:10:00,
2013-02-17 00:15:00,30.7,28.9,29.59,North,360,1.0,1.0,93,0.00,,---,0.00,VWS V14.00,2013-02-17 05:15:00,
2013-02-17 00:20:00,30.8,29.0,29.59,NNE,28,2.0,3.0,93,0.00,,---,0.00,VWS V14.00,2013-02-17 05:20:00,
2013-02-17 00:25:00,30.8,29.0,29.59,North,355,0.0,1.0,93,0.00,,---,0.00,VWS V14.00,2013-02-17 05:25:00,
2013-02-17 00:30:00,30.8,29.0,29.59,North,11,4.0,4.0,93,0.00,,---,0.00,VWS V14.00,2013-02-17 05:30:00,
2013-02-17 00:35:00,30.8,29.0,29.59,ENE,61,1.0,2.0,93,0.00,,---,0.00,VWS V14.00,2013-02-17 05:35:00,
2013-02-17 00:40:00,30.8,29.0,29.59,NE,44,2.0,5.0,93,0.00,,---,0.00,VWS V14.00,2013-02-17 05:40:00,
2013-02-17 00:45:00,30.8,29.0,29.59,North,5,4.0,4.0,93,0.00,,---,0.00,VWS V14.00,2013-02-17 05:45:00,
2013-02-17 00:50:00,30.7,28.9,29.58,North,355,3.0,3.0,93,0.00,,---,0.00,VWS V14.00,2013-02-17 05:50:00,
2013-02-17 00:55:00,30.6,28.6,29.58,NNE,28,1.0,2.0,92,0.00,,---,0.00,VWS V14.00,2013-02-17 05:55:00,
2013-02-17 01:00:00,30.5,28.5,29.58,NE,53,1.0,4.0,92,0.00,,---,0.00,VWS V14.00,2013-02-17 06:00:00,
2013-02-17 01:05:00,30.3,28.3,29.57,NE,53,2.0,5.0,92,0.00,,---,0.00,VWS V14.00,2013-02-17 06:05:00,
2013-02-17 01:10:00,30.1,28.1,29.58,NE,37,1.0,3.0,92,0.00,,---,0.00,VWS V14.00,2013-02-17 06:10:00,
2013-02-17 01:15:00,30.0,27.7,29.57,North,9,7.0,7.0,91,0.00,,---,0.00,VWS V14.00,2013-02-17 06:15:00,
2013-02-17 01:20:00,29.9,27.6,29.57,ENE,57,1.0,7.0,91,0.00,,---,0.00,VWS V14.00,2013-02-17 06:20:00,
2013-02-17 01:25:00,29.8,27.5,29.57,NNE,18,5.0,10.0,91,0.00,,---,0.00,VWS V14.00,2013-02-17 06:25:00,
2013-02-17 01:30:00,29.7,27.4,29.57,ENE,67,1.0,5.0,91,0.00,,---,0.00,VWS V14.00,2013-02-17 06:30:00,
2013-02-17 01:35:00,29.6,27.3,29.56,North,360,0.0,1.0,91,0.00,,---,0.00,VWS V14.00,2013-02-17 06:35:00,
2013-02-17 01:40:00,29.4,26.8,29.55,NNW,343,5.0,8.0,90,0.00,,---,0.00,VWS V14.00,2013-02-17 06:40:00,
2013-02-17 01:45:00,29.2,26.6,29.56,NNE,15,3.0,4.0,90,0.00,,---,0.00,VWS V14.00,2013-02-17 06:45:00,
2013-02-17 01:50:00,29.2,26.6,29.56,East,86,5.0,7.0,90,0.00,,---,0.00,VWS V14.00,2013-02-17 06:50:00,
2013-02-17 01:55:00,29.0,26.4,29.56,East,96,4.0,6.0,90,0.00,,---,0.00,VWS V14.00,2013-02-17 06:55:00,
2013-02-17 02:00:00,28.9,26.3,29.56,North,9,0.0,3.0,90,0.00,,---,0.00,VWS V14.00,2013-02-17 07:00:00,
2013-02-17 02:05:00,28.7,26.1,29.55,NNE,13,8.0,8.0,90,0.00,,---,0.00,VWS V14.00,2013-02-17 07:05:00,
2013-02-17 02:10:00,28.5,26.0,29.55,North,350,5.0,9.0,90,0.00,,---,0.00,VWS V14.00,2013-02-17 07:10:00,
2013-02-17 02:15:00,28.4,25.9,29.55,NNE,16,3.0,5.0,90,0.00,,---,0.00,VWS V14.00,2013-02-17 07:15:00,
2013-02-17 02:20:00,28.3,25.5,29.53,NNE,26,6.0,7.0,89,0.00,,---,0.00,VWS V14.00,2013-02-17 07:20:00,
2013-02-17 02:25:00,28.1,25.3,29.53,NNW,345,8.0,8.0,89,0.00,,---,0.00,VWS V14.00,2013-02-17 07:25:00,
2013-02-17 02:30:00,28.0,25.2,29.52,North,5,2.0,2.0,89,0.00,,---,0.00,VWS V14.00,2013-02-17 07:30:00,
2013-02-17 02:35:00,27.9,25.1,29.52,North,10,6.0,7.0,89,0.00,,---,0.00,VWS V14.00,2013-02-17 07:35:00,
2013-02-17 02:40:00,27.7,24.9,29.51,North,350,4.0,9.0,89,0.00,,---,0.00,VWS V14.00,2013-02-17 07:40:00,
2013-02-17 02:45:00,27.5,25.0,29.51,NNE,28,5.0,9.0,90,0.00,,---,0.00,VWS V14.00,2013-02-17 07:45:00,
2013-02-17 02:50:00,27.3,24.8,29.51,NNW,334,4.0,5.0,90,0.00,,---,0.00,VWS V14.00,2013-02-17 07:50:00,
2013-02-17 02:55:00,27.2,24.9,29.51,WNW,301,3.0,5.0,91,0.00,,---,0.00,VWS V14.00,2013-02-17 07:55:00,
2013-02-17 03:00:00,27.1,25.1,29.51,NNW,343,6.0,6.0,92,0.00,,---,0.00,VWS V14.00,2013-02-17 08:00:00,
2013-02-17 03:05:00,27.0,25.0,29.50,East,96,1.0,6.0,92,0.00,,---,0.00,VWS V14.00,2013-02-17 08:05:00,
2013-02-17 03:10:00,26.8,25.0,29.50,North,5,2.0,5.0,93,0.00,,---,0.00,VWS V14.00,2013-02-17 08:10:00,
2013-02-17 03:15:00,26.6,24.9,29.50,NE,45,4.0,6.0,93,0.00,,---,0.00,VWS V14.00,2013-02-17 08:15:00,
2013-02-17 03:20:00,26.4,24.6,29.50,North,355,6.0,6.0,93,0.00,,---,0.00,VWS V14.00,2013-02-17 08:20:00,
2013-02-17 03:25:00,26.2,24.5,29.49,North,10,1.0,9.0,93,0.00,,---,0.00,VWS V14.00,2013-02-17 08:25:00,
2013-02-17 03:30:00,26.2,24.5,29.48,NNW,338,4.0,4.0,93,0.00,,---,0.00,VWS V14.00,2013-02-17 08:30:00,
2013-02-17 03:35:00,26.0,24.3,29.48,NNW,340,8.0,9.0,93,0.00,,---,0.00,VWS V14.00,2013-02-17 08:35:00,
2013-02-17 03:40:00,25.9,24.2,29.48,NE,44,2.0,3.0,93,0.00,,---,0.00,VWS V14.00,2013-02-17 08:40:00,
2013-02-17 03:45:00,25.8,24.1,29.48,NW,313,11.0,11.0,93,0.00,,---,0.00,VWS V14.00,2013-02-17 08:45:00,
2013-02-17 03:50:00,25.7,24.0,29.48,ESE,106,2.0,2.0,93,0.00,,---,0.00,VWS V14.00,2013-02-17 08:50:00,
2013-02-17 03:55:00,25.6,23.9,29.47,NW,318,7.0,8.0,93,0.00,,---,0.00,VWS V14.00,2013-02-17 08:55:00,
2013-02-17 04:00:00,25.5,23.8,29.47,NNW,341,2.0,10.0,93,0.00,,---,0.00,VWS V14.00,2013-02-17 09:00:00,
2013-02-17 04:05:00,25.4,23.7,29.46,WNW,295,2.0,5.0,93,0.00,,---,0.00,VWS V14.00,2013-02-17 09:05:00,
2013-02-17 04:10:00,25.4,23.7,29.47,NNW,341,1.0,2.0,93,0.00,,---,0.00,VWS V14.00,2013-02-17 09:10:00,
2013-02-17 04:15:00,25.3,23.6,29.47,NW,325,2.0,4.0,93,0.00,,---,0.00,VWS V14.00,2013-02-17 09:15:00,
2013-02-17 04:20:00,25.3,23.6,29.47,NNE,29,1.0,1.0,93,0.00,,---,0.00,VWS V14.00,2013-02-17 09:20:00,
2013-02-17 04:25:00,25.2,23.5,29.47,North,360,6.0,6.0,93,0.00,,---,0.00,VWS V14.00,2013-02-17 09:25:00,
2013-02-17 04:30:00,25.2,23.5,29.47,NE,46,0.0,2.0,93,0.00,,---,0.00,VWS V14.00,2013-02-17 09:30:00,
2013-02-17 04:35:00,25.0,23.3,29.46,NNW,333,5.0,7.0,93,0.00,,---,0.00,VWS V14.00,2013-02-17 09:35:00,
2013-02-17 04:40:00,24.9,23.2,29.46,ENE,68,0.0,0.0,93,0.00,,---,0.00,VWS V14.00,2013-02-17 09:40:00,
2013-02-17 04:45:00,24.7,22.7,29.46,ENE,78,0.0,2.0,92,0.00,,---,0.00,VWS V14.00,2013-02-17 09:45:00,
2013-02-17 04:50:00,24.5,22.5,29.45,NNE,23,1.0,1.0,92,0.00,,---,0.00,VWS V14.00,2013-02-17 09:50:00,
2013-02-17 04:55:00,24.4,22.2,29.45,NNW,341,0.0,2.0,91,0.00,,---,0.00,VWS V14.00,2013-02-17 09:55:00,
2013-02-17 05:00:00,24.2,22.0,29.44,NNE,14,4.0,11.0,91,0.00,,---,0.00,VWS V14.00,2013-02-17 10:00:00,
2013-02-17 05:05:00,24.0,21.8,29.44,NNW,341,6.0,12.0,91,0.00,,---,0.00,VWS V14.00,2013-02-17 10:05:00,
2013-02-17 05:10:00,23.6,21.4,29.44,NNE,17,2.0,3.0,91,0.00,,---,0.00,VWS V14.00,2013-02-17 10:10:00,
2013-02-17 05:15:00,23.4,21.2,29.43,NW,308,5.0,6.0,91,0.00,,---,0.00,VWS V14.00,2013-02-17 10:15:00,
2013-02-17 05:20:00,23.2,21.2,29.43,NNW,346,4.0,5.0,92,0.00,,---,0.00,VWS V14.00,2013-02-17 10:20:00,
2013-02-17 05:25:00,23.0,21.0,29.43,NNW,330,2.0,2.0,92,0.00,,---,0.00,VWS V14.00,2013-02-17 10:25:00,
2013-02-17 05:30:00,22.8,20.8,29.43,North,360,7.0,7.0,92,0.00,,---,0.00,VWS V14.00,2013-02-17 10:30:00,
2013-02-17 05:35:00,22.7,20.7,29.43,NW,315,2.0,2.0,92,0.00,,---,0.00,VWS V14.00,2013-02-17 10:35:00,
2013-02-17 05:40:00,22.6,20.6,29.43,North,355,5.0,7.0,92,0.00,,---,0.00,VWS V14.00,2013-02-17 10:40:00,
2013-02-17 05:45:00,22.5,20.5,29.42,NNW,333,0.0,4.0,92,0.00,,---,0.00,VWS V14.00,2013-02-17 10:45:00,
2013-02-17 05:50:00,22.3,20.6,29.42,West,259,3.0,5.0,93,0.00,,---,0.00,VWS V14.00,2013-02-17 10:50:00,
2013-02-17 05:55:00,22.2,20.2,29.41,WNW,297,7.0,7.0,92,0.00,,---,0.00,VWS V14.00,2013-02-17 10:55:00,
2013-02-17 06:00:00,22.0,20.0,29.40,NNW,346,4.0,4.0,92,0.00,,---,0.00,VWS V14.00,2013-02-17 11:00:00,
2013-02-17 06:05:00,21.9,19.9,29.40,North,355,5.0,6.0,92,0.00,,---,0.00,VWS V14.00,2013-02-17 11:05:00,
2013-02-17 06:10:00,21.9,19.9,29.40,NNW,327,4.0,5.0,92,0.00,,---,0.00,VWS V14.00,2013-02-17 11:10:00,
2013-02-17 06:15:00,21.8,19.8,29.40,NNE,18,1.0,1.0,92,0.00,,---,0.00,VWS V14.00,2013-02-17 11:15:00,
2013-02-17 06:20:00,21.8,20.1,29.40,NNW,333,10.0,10.0,93,0.00,,---,0.00,VWS V14.00,2013-02-17 11:20:00,
2013-02-17 06:25:00,21.7,20.0,29.39,WNW,297,6.0,6.0,93,0.00,,---,0.00,VWS V14.00,2013-02-17 11:25:00,
2013-02-17 06:30:00,21.6,19.9,29.40,NE,34,8.0,8.0,93,0.00,,---,0.00,VWS V14.00,2013-02-17 11:30:00,
2013-02-17 06:35:00,21.5,19.8,29.39,NW,323,1.0,1.0,93,0.00,,---,0.00,VWS V14.00,2013-02-17 11:35:00,
2013-02-17 06:40:00,21.4,19.7,29.38,North,360,6.0,10.0,93,0.00,,---,0.00,VWS V14.00,2013-02-17 11:40:00,
2013-02-17 06:45:00,21.4,19.7,29.38,West,274,1.0,5.0,93,0.00,,---,0.00,VWS V14.00,2013-02-17 11:45:00,
2013-02-17 06:50:00,21.3,19.6,29.38,NNE,24,2.0,4.0,93,0.00,,---,0.00,VWS V14.00,2013-02-17 11:50:00,
2013-02-17 06:55:00,21.2,19.5,29.38,WNW,300,0.0,1.0,93,0.00,,---,0.00,VWS V14.00,2013-02-17 11:55:00,
2013-02-17 07:00:00,21.1,19.4,29.38,North,350,4.0,7.0,93,0.00,,---,0.00,VWS V14.00,2013-02-17 12:00:00,
2013-02-17 07:05:00,21.1,19.4,29.37,NW,326,3.0,4.0,93,0.00,,---,0.00,VWS V14.00,2013-02-17 12:05:00,
2013-02-17 07:10:00,20.9,19.2,29.37,ENE,63,7.0,7.0,93,0.00,,---,0.00,VWS V14.00,2013-02-17 12:10:00,
2013-02-17 07:15:00,21.0,19.3,29.37,NE,50,1.0,2.0,93,0.00,,---,0.00,VWS V14.00,2013-02-17 12:15:00,
2013-02-17 07:20:00,21.0,19.3,29.37,NNW,332,5.0,8.0,93,0.00,,---,0.00,VWS V14.00,2013-02-17 12:20:00,
2013-02-17 07:25:00,21.0,19.3,29.36,SSE,160,2.0,7.0,93,0.00,,---,0.00,VWS V14.00,2013-02-17 12:25:00,
2013-02-17 07:30:00,21.0,19.3,29.36,NNW,340,4.0,5.0,93,0.00,,---,0.00,VWS V14.00,2013-02-17 12:30:00,
2013-02-17 07:35:00,21.0,19.3,29.36,NW,309,6.0,8.0,93,0.00,,---,0.00,VWS V14.00,2013-02-17 12:35:00,
2013-02-17 07:40:00,20.9,19.2,29.35,WNW,296,4.0,4.0,93,0.00,,---,0.00,VWS V14.00,2013-02-17 12:40:00,
2013-02-17 07:45:00,20.9,19.2,29.35,NNW,335,3.0,4.0,93,0.00,,---,0.00,VWS V14.00,2013-02-17 12:45:00,
2013-02-17 07:50:00,21.0,19.3,29.35,North,355,0.0,1.0,93,0.00,,---,0.00,VWS V14.00,2013-02-17 12:50:00,
2013-02-17 07:55:00,21.1,19.6,29.35,NNE,19,2.0,2.0,94,0.00,,---,0.00,VWS V14.00,2013-02-17 12:55:00,
2013-02-17 08:00:00,21.1,19.6,29.35,West,277,9.0,9.0,94,0.00,,---,0.00,VWS V14.00,2013-02-17 13:00:00,
2013-02-17 08:05:00,21.0,19.5,29.35,NNW,337,6.0,12.0,94,0.00,,---,0.00,VWS V14.00,2013-02-17 13:05:00,
2013-02-17 08:10:00,20.8,19.1,29.35,NW,310,9.0,10.0,93,0.00,,---,0.00,VWS V14.00,2013-02-17 13:10:00,
2013-02-17 08:15:00,20.6,19.1,29.35,NE,51,1.0,4.0,94,0.00,,---,0.00,VWS V14.00,2013-02-17 13:15:00,
2013-02-17 08:20:00,20.6,19.1,29.34,NW,314,6.0,8.0,94,0.00,,---,0.00,VWS V14.00,2013-02-17 13:20:00,
2013-02-17 08:25:00,20.4,19.0,29.34,NNW,336,2.0,5.0,94,0.00,,---,0.00,VWS V14.00,2013-02-17 13:25:00,
2013-02-17 08:30:00,20.3,18.6,29.33,NNW,347,3.0,4.0,93,0.00,,---,0.00,VWS V14.00,2013-02-17 13:30:00,
2013-02-17 08:35:00,20.2,18.5,29.33,NNW,348,4.0,9.0,93,0.00,,---,0.00,VWS V14.00,2013-02-17 13:35:00,
2013-02-17 08:40:00,20.1,18.6,29.33,NNW,329,6.0,10.0,94,0.00,,---,0.00,VWS V14.00,2013-02-17 13:40:00,
2013-02-17 08:45:00,20.0,18.5,29.32,NW,309,1.0,5.0,94,0.00,,---,0.00,VWS V14.00,2013-02-17 13:45:00,
2013-02-17 08:50:00,20.0,18.5,29.32,WNW,290,10.0,10.0,94,0.00,,---,0.00,VWS V14.00,2013-02-17 13:50:00,
2013-02-17 08:55:00,19.9,18.5,29.32,NNW,346,5.0,6.0,94,0.00,,---,0.00,VWS V14.00,2013-02-17 13:55:00,
2013-02-17 09:00:00,19.9,18.5,29.32,NW,304,5.0,8.0,94,0.00,,---,0.00,VWS V14.00,2013-02-17 14:00:00,
2013-02-17 09:05:00,19.7,18.0,29.32,SW,236,5.0,6.0,93,0.00,,---,0.00,VWS V14.00,2013-02-17 14:05:00,
2013-02-17 09:10:00,19.7,18.0,29.31,NW,321,5.0,5.0,93,0.00,,---,0.00,VWS V14.00,2013-02-17 14:10:00,
2013-02-17 09:15:00,19.7,18.0,29.31,NNW,333,5.0,9.0,93,0.00,,---,0.00,VWS V14.00,2013-02-17 14:15:00,
2013-02-17 09:20:00,19.7,18.0,29.31,NNW,333,1.0,19.0,93,0.00,,---,0.00,VWS V14.00,2013-02-17 14:20:00,
2013-02-17 09:25:00,19.7,18.0,29.32,NNW,343,5.0,10.0,93,0.00,,---,0.00,VWS V14.00,2013-02-17 14:25:00,
2013-02-17 09:30:00,19.7,18.0,29.31,WNW,292,4.0,21.0,93,0.00,,---,0.00,VWS V14.00,2013-02-17 14:30:00,
2013-02-17 09:35:00,19.7,18.0,29.31,NNE,22,4.0,9.0,93,0.00,,---,0.00,VWS V14.00,2013-02-17 14:35:00,
2013-02-17 09:40:00,19.7,18.0,29.31,North,5,3.0,18.0,93,0.00,,---,0.00,VWS V14.00,2013-02-17 14:40:00,
2013-02-17 09:45:00,19.7,18.0,29.31,NNW,344,4.0,8.0,93,0.00,,---,0.00,VWS V14.00,2013-02-17 14:45:00,
2013-02-17 09:50:00,19.7,18.0,29.31,West,278,7.0,11.0,93,0.00,,---,0.00,VWS V14.00,2013-02-17 14:50:00,
2013-02-17 09:55:00,19.7,18.0,29.31,WNW,282,6.0,6.0,93,0.00,,---,0.00,VWS V14.00,2013-02-17 14:55:00,
2013-02-17 10:00:00,19.8,18.1,29.31,NNW,348,1.0,2.0,93,0.00,,---,0.00,VWS V14.00,2013-02-17 15:00:00,
2013-02-17 10:05:00,19.8,18.4,29.31,West,276,6.0,6.0,94,0.00,,---,0.00,VWS V14.00,2013-02-17 15:05:00,
2013-02-17 10:10:00,19.8,18.4,29.31,North,360,0.0,15.0,94,0.00,,---,0.00,VWS V14.00,2013-02-17 15:10:00,
2013-02-17 10:15:00,19.8,18.4,29.31,NNW,337,4.0,9.0,94,0.00,,---,0.00,VWS V14.00,2013-02-17 15:15:00,
2013-02-17 10:20:00,19.7,18.0,29.32,SSW,210,1.0,7.0,93,0.00,,---,0.00,VWS V14.00,2013-02-17 15:20:00,
2013-02-17 10:25:00,19.7,18.0,29.31,West,276,3.0,5.0,93,0.00,,---,0.00,VWS V14.00,2013-02-17 15:25:00,
2013-02-17 10:30:00,19.7,18.0,29.32,WSW,244,2.0,6.0,93,0.00,,---,0.00,VWS V14.00,2013-02-17 15:30:00,
2013-02-17 10:35:00,19.8,18.1,29.32,NW,325,5.0,12.0,93,0.00,,---,0.00,VWS V14.00,2013-02-17 15:35:00,
2013-02-17 10:40:00,19.7,18.0,29.32,West,275,1.0,10.0,93,0.00,,---,0.00,VWS V14.00,2013-02-17 15:40:00,
2013-02-17 10:45:00,19.7,18.0,29.32,NW,320,0.0,7.0,93,0.00,,---,0.00,VWS V14.00,2013-02-17 15:45:00,
2013-02-17 10:50:00,19.8,18.1,29.32,WNW,298,2.0,6.0,93,0.00,,---,0.00,VWS V14.00,2013-02-17 15:50:00,
2013-02-17 10:55:00,19.9,18.2,29.32,WSW,254,3.0,9.0,93,0.00,,---,0.00,VWS V14.00,2013-02-17 15:55:00,
2013-02-17 11:00:00,20.2,18.8,29.32,WNW,286,2.0,7.0,94,0.00,,---,0.00,VWS V14.00,2013-02-17 16:00:00,
2013-02-17 11:05:00,20.3,18.9,29.32,West,272,1.0,8.0,94,0.00,,---,0.00,VWS V14.00,2013-02-17 16:05:00,
2013-02-17 11:10:00,20.4,19.0,29.33,NW,306,4.0,7.0,94,0.00,,---,0.00,VWS V14.00,2013-02-17 16:10:00,
2013-02-17 11:15:00,20.5,19.0,29.32,NNW,346,5.0,6.0,94,0.00,,---,0.00,VWS V14.00,2013-02-17 16:15:00,
2013-02-17 11:20:00,20.4,19.0,29.32,ENE,70,1.0,2.0,94,0.00,,---,0.00,VWS V14.00,2013-02-17 16:20:00,
2013-02-17 11:25:00,20.5,19.0,29.32,West,267,2.0,6.0,94,0.00,,---,0.00,VWS V14.00,2013-02-17 16:25:00,
2013-02-17 11:30:00,20.6,19.1,29.32,NNW,342,1.0,3.0,94,0.00,,---,0.00,VWS V14.00,2013-02-17 16:30:00,
2013-02-17 11:35:00,20.7,19.2,29.32,WSW,250,1.0,3.0,94,0.00,,---,0.00,VWS V14.00,2013-02-17 16:35:00,
2013-02-17 11:40:00,20.8,19.4,29.32,WNW,285,4.0,10.0,94,0.00,,---,0.00,VWS V14.00,2013-02-17 16:40:00,
2013-02-17 11:45:00,20.8,19.4,29.32,ESE,121,4.0,8.0,94,0.00,,---,0.00,VWS V14.00,2013-02-17 16:45:00,
2013-02-17 11:50:00,20.9,19.5,29.32,WNW,294,1.0,4.0,94,0.00,,---,0.00,VWS V14.00,2013-02-17 16:50:00,
2013-02-17 11:55:00,21.0,19.5,29.32,West,265,5.0,7.0,94,0.00,,---,0.00,VWS V14.00,2013-02-17 16:55:00,
2013-02-17 12:00:00,21.0,19.3,29.32,WNW,288,0.0,4.0,93,0.00,,---,0.00,VWS V14.00,2013-02-17 17:00:00,
2013-02-17 12:05:00,21.1,19.6,29.32,WNW,288,2.0,6.0,94,0.00,,---,0.00,VWS V14.00,2013-02-17 17:05:00,
2013-02-17 12:10:00,21.2,19.5,29.32,WNW,297,5.0,5.0,93,0.00,,---,0.00,VWS V14.00,2013-02-17 17:10:00,
2013-02-17 12:15:00,21.2,19.5,29.32,SW,228,1.0,2.0,93,0.00,,---,0.00,VWS V14.00,2013-02-17 17:15:00,
2013-02-17 12:20:00,21.4,19.7,29.33,NNE,32,2.0,5.0,93,0.00,,---,0.00,VWS V14.00,2013-02-17 17:20:00,
2013-02-17 12:25:00,21.6,19.9,29.33,WNW,293,4.0,4.0,93,0.00,,---,0.00,VWS V14.00,2013-02-17 17:25:00,
2013-02-17 12:30:00,21.7,20.0,29.32,WNW,292,3.0,5.0,93,0.00,,---,0.00,VWS V14.00,2013-02-17 17:30:00,
2013-02-17 12:35:00,21.7,20.0,29.32,North,355,4.0,13.0,93,0.00,,---,0.00,VWS V14.00,2013-02-17 17:35:00,
2013-02-17 12:40:00,21.7,19.7,29.32,North,360,7.0,8.0,92,0.00,,---,0.00,VWS V14.00,2013-02-17 17:40:00,
2013-02-17 12:45:00,21.8,19.8,29.33,WNW,292,2.0,8.0,92,0.00,,---,0.00,VWS V14.00,2013-02-17 17:45:00,
2013-02-17 12:50:00,22.1,20.1,29.33,NNW,340,7.0,8.0,92,0.00,,---,0.00,VWS V14.00,2013-02-17 17:50:00,
2013-02-17 12:55:00,22.2,20.2,29.33,West,274,4.0,5.0,92,0.00,,---,0.00,VWS V14.00,2013-02-17 17:55:00,
2013-02-17 13:00:00,22.2,20.0,29.33,West,263,5.0,8.0,91,0.00,,---,0.00,VWS V14.00,2013-02-17 18:00:00,
2013-02-17 13:05:00,22.2,20.0,29.33,West,280,2.0,5.0,91,0.00,,---,0.00,VWS V14.00,2013-02-17 18:05:00,
2013-02-17 13:10:00,22.2,19.7,29.33,NNW,329,2.0,6.0,90,0.00,,---,0.00,VWS V14.00,2013-02-17 18:10:00,
2013-02-17 13:15:00,22.3,19.6,29.34,WSW,254,2.0,6.0,89,0.00,,---,0.00,VWS V14.00,2013-02-17 18:15:00,
2013-02-17 13:20:00,22.3,19.3,29.34,West,280,2.0,6.0,88,0.00,,---,0.00,VWS V14.00,2013-02-17 18:20:00,
2013-02-17 13:25:00,22.5,19.8,29.33,SW,229,7.0,11.0,89,0.00,,---,0.00,VWS V14.00,2013-02-17 18:25:00,
2013-02-17 13:30:00,22.5,19.5,29.34,NNW,331,1.0,7.0,88,0.00,,---,0.00,VWS V14.00,2013-02-17 18:30:00,
2013-02-17 13:35:00,22.4,19.1,29.34,NW,308,3.0,5.0,87,0.00,,---,0.00,VWS V14.00,2013-02-17 18:35:00,
2013-02-17 13:40:00,22.3,18.8,29.34,West,279,6.0,10.0,86,0.00,,---,0.00,VWS V14.00,2013-02-17 18:40:00,
2013-02-17 13:45:00,22.3,18.5,29.34,NNW,341,5.0,7.0,85,0.00,,---,0.00,VWS V14.00,2013-02-17 18:45:00,
2013-02-17 13:50:00,22.2,18.1,29.35,WSW,257,5.0,7.0,84,0.00,,---,0.00,VWS V14.00,2013-02-17 18:50:00,
2013-02-17 13:55:00,22.1,17.5,29.35,West,276,5.0,10.0,82,0.00,,---,0.00,VWS V14.00,2013-02-17 18:55:00,
2013-02-17 14:00:00,22.2,17.3,29.35,WNW,284,1.0,7.0,81,0.00,,---,0.00,VWS V14.00,2013-02-17 19:00:00,
2013-02-17 14:05:00,22.4,17.2,29.35,West,281,2.0,5.0,80,0.00,,---,0.00,VWS V14.00,2013-02-17 19:05:00,
2013-02-17 14:10:00,22.5,16.7,29.35,SW,232,5.0,5.0,78,0.00,,---,0.00,VWS V14.00,2013-02-17 19:10:00,
2013-02-17 14:15:00,22.5,16.1,29.35,West,259,4.0,5.0,76,0.00,,---,0.00,VWS V14.00,2013-02-17 19:15:00,
2013-02-17 14:20:00,22.5,15.8,29.35,West,281,3.0,6.0,75,0.00,,---,0.00,VWS V14.00,2013-02-17 19:20:00,
2013-02-17 14:25:00,22.4,15.4,29.37,WSW,256,2.0,19.0,74,0.00,,---,0.00,VWS V14.00,2013-02-17 19:25:00,
2013-02-17 14:30:00,22.3,14.7,29.36,NNW,328,7.0,9.0,72,0.00,,---,0.00,VWS V14.00,2013-02-17 19:30:00,
2013-02-17 14:35:00,22.2,15.2,29.36,West,277,6.0,9.0,74,0.00,,---,0.00,VWS V14.00,2013-02-17 19:35:00,
2013-02-17 14:40:00,22.1,14.5,29.36,West,265,5.0,9.0,72,0.00,,---,0.00,VWS V14.00,2013-02-17 19:40:00,
2013-02-17 14:45:00,22.2,14.9,29.37,WNW,288,6.0,7.0,73,0.00,,---,0.00,VWS V14.00,2013-02-17 19:45:00,
2013-02-17 14:50:00,22.2,14.2,29.37,WNW,290,5.0,6.0,71,0.00,,---,0.00,VWS V14.00,2013-02-17 19:50:00,
2013-02-17 14:55:00,22.4,14.1,29.37,WNW,298,5.0,6.0,70,0.00,,---,0.00,VWS V14.00,2013-02-17 19:55:00,
2013-02-17 15:00:00,22.4,14.4,29.38,West,276,0.0,6.0,71,0.00,,---,0.00,VWS V14.00,2013-02-17 20:00:00,
2013-02-17 15:05:00,22.4,13.8,29.37,West,270,2.0,10.0,69,0.00,,---,0.00,VWS V14.00,2013-02-17 20:05:00,
2013-02-17 15:10:00,22.4,13.1,29.38,NNW,332,5.0,6.0,67,0.00,,---,0.00,VWS V14.00,2013-02-17 20:10:00,
2013-02-17 15:15:00,22.5,13.9,29.38,NW,324,9.0,21.0,69,0.00,,---,0.00,VWS V14.00,2013-02-17 20:15:00,
2013-02-17 15:20:00,22.6,14.0,29.39,North,355,7.0,9.0,69,0.00,,---,0.00,VWS V14.00,2013-02-17 20:20:00,
2013-02-17 15:25:00,22.6,13.6,29.39,NNW,329,5.0,8.0,68,0.00,,---,0.00,VWS V14.00,2013-02-17 20:25:00,
2013-02-17 15:30:00,22.6,14.0,29.39,WSW,248,5.0,9.0,69,0.00,,---,0.00,VWS V14.00,2013-02-17 20:30:00,
2013-02-17 15:35:00,22.6,13.3,29.40,South,182,4.0,8.0,67,0.00,,---,0.00,VWS V14.00,2013-02-17 20:35:00,
2013-02-17 15:40:00,22.6,13.6,29.40,NNW,340,7.0,8.0,68,0.00,,---,0.00,VWS V14.00,2013-02-17 20:40:00,
2013-02-17 15:45:00,22.8,13.5,29.40,WNW,291,2.0,6.0,67,0.00,,---,0.00,VWS V14.00,2013-02-17 20:45:00,
2013-02-17 15:50:00,22.8,13.5,29.40,South,182,7.0,7.0,67,0.00,,---,0.00,VWS V14.00,2013-02-17 20:50:00,
2013-02-17 15:55:00,22.8,13.5,29.41,NW,318,6.0,8.0,67,0.00,,---,0.00,VWS V14.00,2013-02-17 20:55:00,
2013-02-17 16:00:00,22.9,13.3,29.41,ENE,60,8.0,10.0,66,0.00,,---,0.00,VWS V14.00,2013-02-17 21:00:00,
2013-02-17 16:05:00,23.0,14.4,29.41,WNW,295,6.0,6.0,69,0.00,,---,0.00,VWS V14.00,2013-02-17 21:05:00,
2013-02-17 16:10:00,23.1,13.1,29.41,West,277,7.0,10.0,65,0.00,,---,0.00,VWS V14.00,2013-02-17 21:10:00,
2013-02-17 16:15:00,23.2,13.5,29.41,WNW,291,4.0,6.0,66,0.00,,---,0.00,VWS V14.00,2013-02-17 21:15:00,
2013-02-17 16:20:00,23.1,13.1,29.42,WNW,296,4.0,13.0,65,0.00,,---,0.00,VWS V14.00,2013-02-17 21:20:00,
2013-02-17 16:25:00,23.2,12.8,29.42,West,271,4.0,8.0,64,0.00,,---,0.00,VWS V14.00,2013-02-17 21:25:00,
2013-02-17 16:30:00,23.2,12.5,29.42,West,274,10.0,11.0,63,0.00,,---,0.00,VWS V14.00,2013-02-17 21:30:00,
2013-02-17 16:35:00,23.4,12.7,29.42,WNW,291,2.0,10.0,63,0.00,,---,0.00,VWS V14.00,2013-02-17 21:35:00,
2013-02-17 16:40:00,23.4,13.0,29.43,NW,313,5.0,5.0,64,0.00,,---,0.00,VWS V14.00,2013-02-17 21:40:00,
2013-02-17 16:45:00,23.5,12.8,29.43,WNW,284,4.0,7.0,63,0.00,,---,0.00,VWS V14.00,2013-02-17 21:45:00,
2013-02-17 16:50:00,23.6,12.9,29.43,West,281,4.0,6.0,63,0.00,,---,0.00,VWS V14.00,2013-02-17 21:50:00,
2013-02-17 16:55:00,23.6,12.5,29.43,WNW,293,6.0,6.0,62,0.00,,---,0.00,VWS V14.00,2013-02-17 21:55:00,
2013-02-17 17:00:00,23.8,12.0,29.44,WSW,249,2.0,9.0,60,0.00,,---,0.00,VWS V14.00,2013-02-17 22:00:00,
2013-02-17 17:05:00,23.8,12.7,29.44,WNW,292,4.0,4.0,62,0.00,,---,0.00,VWS V14.00,2013-02-17 22:05:00,
2013-02-17 17:10:00,23.9,12.4,29.44,WNW,299,5.0,8.0,61,0.00,,---,0.00,VWS V14.00,2013-02-17 22:10:00,
2013-02-17 17:15:00,24.0,12.5,29.45,WNW,295,6.0,8.0,61,0.00,,---,0.00,VWS V14.00,2013-02-17 22:15:00,
2013-02-17 17:20:00,24.0,12.5,29.44,WNW,300,7.0,7.0,61,0.00,,---,0.00,VWS V14.00,2013-02-17 22:20:00,
2013-02-17 17:25:00,24.2,12.7,29.45,WSW,257,6.0,7.0,61,0.00,,---,0.00,VWS V14.00,2013-02-17 22:25:00,
2013-02-17 17:30:00,24.2,12.7,29.45,West,281,5.0,5.0,61,0.00,,---,0.00,VWS V14.00,2013-02-17 22:30:00,
2013-02-17 17:35:00,24.3,12.4,29.45,West,270,2.0,6.0,60,0.00,,---,0.00,VWS V14.00,2013-02-17 22:35:00,
2013-02-17 17:40:00,24.3,11.7,29.45,West,277,9.0,9.0,58,0.00,,---,0.00,VWS V14.00,2013-02-17 22:40:00,
2013-02-17 17:45:00,24.4,12.1,29.46,North,350,7.0,8.0,59,0.00,,---,0.00,VWS V14.00,2013-02-17 22:45:00,
2013-02-17 17:50:00,24.5,11.9,29.47,West,267,6.0,6.0,58,0.00,,---,0.00,VWS V14.00,2013-02-17 22:50:00,
2013-02-17 17:55:00,24.5,11.5,29.47,WNW,299,6.0,10.0,57,0.00,,---,0.00,VWS V14.00,2013-02-17 22:55:00,
2013-02-17 18:00:00,24.6,10.8,29.47,WNW,291,6.0,6.0,55,0.00,,---,0.00,VWS V14.00,2013-02-17 23:00:00,
2013-02-17 18:05:00,24.7,10.9,29.47,WNW,284,5.0,19.0,55,0.00,,---,0.00,VWS V14.00,2013-02-17 23:05:00,
2013-02-17 18:10:00,24.7,11.2,29.47,SW,218,6.0,7.0,56,0.00,,---,0.00,VWS V14.00,2013-02-17 23:10:00,
2013-02-17 18:15:00,24.7,11.2,29.47,West,272,2.0,6.0,56,0.00,,---,0.00,VWS V14.00,2013-02-17 23:15:00,
2013-02-17 18:20:00,24.7,11.2,29.47,West,281,8.0,9.0,56,0.00,,---,0.00,VWS V14.00,2013-02-17 23:20:00,
2013-02-17 18:25:00,24.7,10.9,29.48,WSW,245,6.0,9.0,55,0.00,,---,0.00,VWS V14.00,2013-02-17 23:25:00,
2013-02-17 18:30:00,24.8,10.1,29.48,WSW,258,7.0,9.0,53,0.00,,---,0.00,VWS V14.00,2013-02-17 23:30:00,
2013-02-17 18:35:00,24.8,10.5,29.49,WSW,258,2.0,7.0,54,0.00,,---,0.00,VWS V14.00,2013-02-17 23:35:00,
2013-02-17 18:40:00,24.8,10.1,29.48,SW,219,6.0,9.0,53,0.00,,---,0.00,VWS V14.00,2013-02-17 23:40:00,
2013-02-17 18:45:00,24.9,9.8,29.49,WNW,294,5.0,10.0,52,0.00,,---,0.00,VWS V14.00,2013-02-17 23:45:00,
2013-02-17 18:50:00,24.9,10.2,29.49,SSW,199,4.0,8.0,53,0.00,,---,0.00,VWS V14.00,2013-02-17 23:50:00,
2013-02-17 18:55:00,24.9,9.4,29.49,WNW,290,8.0,15.0,51,0.00,,---,0.00,VWS V14.00,2013-02-17 23:55:00,
2013-02-17 19:00:00,24.9,9.4,29.49,NW,319,5.0,8.0,51,0.00,,---,0.00,VWS V14.00,2013-02-18 00:00:00,
2013-02-17 19:05:00,24.8,9.2,29.50,WSW,253,4.0,6.0,51,0.00,,---,0.00,VWS V14.00,2013-02-18 00:05:00,
2013-02-17 19:10:00,24.8,9.7,29.49,NNW,327,4.0,7.0,52,0.00,,---,0.00,VWS V14.00,2013-02-18 00:10:00,
2013-02-17 19:15:00,24.8,9.2,29.49,NNW,330,7.0,8.0,51,0.00,,---,0.00,VWS V14.00,2013-02-18 00:15:00,
2013-02-17 19:20:00,24.8,8.4,29.49,WSW,250,4.0,10.0,49,0.00,,---,0.00,VWS V14.00,2013-02-18 00:20:00,
2013-02-17 19:25:00,24.8,9.7,29.49,West,276,4.0,6.0,52,0.00,,---,0.00,VWS V14.00,2013-02-18 00:25:00,
2013-02-17 19:30:00,24.7,8.3,29.50,West,274,1.0,6.0,49,0.00,,---,0.00,VWS V14.00,2013-02-18 00:30:00,
2013-02-17 19:35:00,24.8,8.4,29.50,West,279,5.0,5.0,49,0.00,,---,0.00,VWS V14.00,2013-02-18 00:35:00,
2013-02-17 19:40:00,24.8,9.2,29.50,West,267,6.0,6.0,51,0.00,,---,0.00,VWS V14.00,2013-02-18 00:40:00,
2013-02-17 19:45:00,24.6,8.6,29.50,West,276,5.0,5.0,50,0.00,,---,0.00,VWS V14.00,2013-02-18 00:45:00,
2013-02-17 19:50:00,24.4,8.9,29.50,WSW,242,8.0,8.0,51,0.00,,---,0.00,VWS V14.00,2013-02-18 00:50:00,
2013-02-17 19:55:00,24.2,8.3,29.50,West,267,7.0,8.0,50,0.00,,---,0.00,VWS V14.00,2013-02-18 00:55:00,
2013-02-17 20:00:00,23.9,8.4,29.51,West,267,5.0,6.0,51,0.00,,---,0.00,VWS V14.00,2013-02-18 01:00:00,
2013-02-17 20:05:00,23.7,8.7,29.51,West,275,6.0,7.0,52,0.00,,---,0.00,VWS V14.00,2013-02-18 01:05:00,
2013-02-17 20:10:00,23.5,9.3,29.51,WNW,298,7.0,10.0,54,0.00,,---,0.00,VWS V14.00,2013-02-18 01:10:00,
2013-02-17 20:15:00,23.4,8.4,29.52,West,272,6.0,9.0,52,0.00,,---,0.00,VWS V14.00,2013-02-18 01:15:00,
2013-02-17 20:20:00,23.2,8.2,29.52,West,267,6.0,7.0,52,0.00,,---,0.00,VWS V14.00,2013-02-18 01:20:00,
2013-02-17 20:25:00,23.0,8.9,29.52,WSW,258,5.0,5.0,54,0.00,,---,0.00,VWS V14.00,2013-02-18 01:25:00,
2013-02-17 20:30:00,22.8,8.7,29.52,West,265,5.0,7.0,54,0.00,,---,0.00,VWS V14.00,2013-02-18 01:30:00,
2013-02-17 20:35:00,22.6,8.5,29.52,West,271,6.0,7.0,54,0.00,,---,0.00,VWS V14.00,2013-02-18 01:35:00,
2013-02-17 20:40:00,22.4,8.3,29.53,WSW,256,3.0,8.0,54,0.00,,---,0.00,VWS V14.00,2013-02-18 01:40:00,
2013-02-17 20:45:00,22.2,8.1,29.53,West,260,6.0,7.0,54,0.00,,---,0.00,VWS V14.00,2013-02-18 01:45:00,
2013-02-17 20:50:00,22.1,8.0,29.54,West,270,7.0,8.0,54,0.00,,---,0.00,VWS V14.00,2013-02-18 01:50:00,
2013-02-17 20:55:00,21.9,7.8,29.54,West,266,7.0,12.0,54,0.00,,---,0.00,VWS V14.00,2013-02-18 01:55:00,
2013-02-17 21:00:00,21.7,8.4,29.54,West,264,5.0,6.0,56,0.00,,---,0.00,VWS V14.00,2013-02-18 02:00:00,
2013-02-17 21:05:00,21.6,8.7,29.55,WNW,284,5.0,7.0,57,0.00,,---,0.00,VWS V14.00,2013-02-18 02:05:00,
2013-02-17 21:10:00,21.4,8.1,29.55,West,269,6.0,6.0,56,0.00,,---,0.00,VWS V14.00,2013-02-18 02:10:00,
2013-02-17 21:15:00,21.3,8.4,29.55,West,271,5.0,6.0,57,0.00,,---,0.00,VWS V14.00,2013-02-18 02:15:00,
2013-02-17 21:20:00,21.1,7.9,29.56,West,271,5.0,5.0,56,0.00,,---,0.00,VWS V14.00,2013-02-18 02:20:00,
2013-02-17 21:25:00,20.9,7.3,29.56,West,270,8.0,10.0,55,0.00,,---,0.00,VWS V14.00,2013-02-18 02:25:00,
2013-02-17 21:30:00,20.7,7.9,29.56,West,263,5.0,7.0,57,0.00,,---,0.00,VWS V14.00,2013-02-18 02:30:00,
2013-02-17 21:35:00,20.6,8.2,29.57,WNW,283,6.0,6.0,58,0.00,,---,0.00,VWS V14.00,2013-02-18 02:35:00,
2013-02-17 21:40:00,20.5,8.1,29.56,West,275,5.0,7.0,58,0.00,,---,0.00,VWS V14.00,2013-02-18 02:40:00,
2013-02-17 21:45:00,20.4,8.0,29.57,West,271,7.0,7.0,58,0.00,,---,0.00,VWS V14.00,2013-02-18 02:45:00,
2013-02-17 21:50:00,20.3,7.1,29.57,WSW,246,4.0,6.0,56,0.00,,---,0.00,VWS V14.00,2013-02-18 02:50:00,
2013-02-17 21:55:00,20.2,7.8,29.57,West,263,3.0,6.0,58,0.00,,---,0.00,VWS V14.00,2013-02-18 02:55:00,
2013-02-17 22:00:00,20.1,8.1,29.58,WNW,294,6.0,6.0,59,0.00,,---,0.00,VWS V14.00,2013-02-18 03:00:00,
2013-02-17 22:05:00,20.1,7.7,29.57,West,281,7.0,10.0,58,0.00,,---,0.00,VWS V14.00,2013-02-18 03:05:00,
2013-02-17 22:10:00,20.1,8.1,29.58,WSW,242,2.0,5.0,59,0.00,,---,0.00,VWS V14.00,2013-02-18 03:10:00,
2013-02-17 22:15:00,20.1,7.7,29.59,WSW,244,3.0,4.0,58,0.00,,---,0.00,VWS V14.00,2013-02-18 03:15:00,
2013-02-17 22:20:00,20.0,8.0,29.59,West,268,1.0,6.0,59,0.00,,---,0.00,VWS V14.00,2013-02-18 03:20:00,
2013-02-17 22:25:00,20.0,7.6,29.59,SW,229,9.0,18.0,58,0.00,,---,0.00,VWS V14.00,2013-02-18 03:25:00,
2013-02-17 22:30:00,19.9,6.8,29.59,West,269,5.0,8.0,56,0.00,,---,0.00,VWS V14.00,2013-02-18 03:30:00,
2013-02-17 22:35:00,19.8,7.0,29.60,West,269,5.0,5.0,57,0.00,,---,0.00,VWS V14.00,2013-02-18 03:35:00,
2013-02-17 22:40:00,19.8,7.0,29.60,WNW,294,5.0,9.0,57,0.00,,---,0.00,VWS V14.00,2013-02-18 03:40:00,
2013-02-17 22:45:00,19.7,6.9,29.60,West,271,6.0,9.0,57,0.00,,---,0.00,VWS V14.00,2013-02-18 03:45:00,
2013-02-17 22:50:00,19.7,7.3,29.60,NW,309,8.0,8.0,58,0.00,,---,0.00,VWS V14.00,2013-02-18 03:50:00,
2013-02-17 22:55:00,19.6,6.8,29.60,West,280,5.0,8.0,57,0.00,,---,0.00,VWS V14.00,2013-02-18 03:55:00,
2013-02-17 23:00:00,19.5,6.8,29.60,West,275,4.0,5.0,57,0.00,,---,0.00,VWS V14.00,2013-02-18 04:00:00,
2013-02-17 23:05:00,19.4,7.1,29.61,West,263,5.0,7.0,58,0.00,,---,0.00,VWS V14.00,2013-02-18 04:05:00,
2013-02-17 23:10:00,19.2,6.1,29.61,West,271,6.0,7.0,56,0.00,,---,0.00,VWS V14.00,2013-02-18 04:10:00,
2013-02-17 23:15:00,19.0,5.5,29.61,SSW,192,8.0,13.0,55,0.00,,---,0.00,VWS V14.00,2013-02-18 04:15:00,
2013-02-17 23:20:00,18.9,6.2,29.61,West,278,5.0,7.0,57,0.00,,---,0.00,VWS V14.00,2013-02-18 04:20:00,
2013-02-17 23:25:00,18.8,6.5,29.62,West,273,1.0,7.0,58,0.00,,---,0.00,VWS V14.00,2013-02-18 04:25:00,
2013-02-17 23:30:00,18.7,6.0,29.62,NW,323,6.0,6.0,57,0.00,,---,0.00,VWS V14.00,2013-02-18 04:30:00,
2013-02-17 23:35:00,18.7,6.0,29.62,West,279,5.0,6.0,57,0.00,,---,0.00,VWS V14.00,2013-02-18 04:35:00,
2013-02-17 23:40:00,18.6,6.3,29.63,SW,223,1.0,4.0,58,0.00,,---,0.00,VWS V14.00,2013-02-18 04:40:00,
2013-02-17 23:45:00,18.6,6.3,29.63,WNW,292,2.0,9.0,58,0.00,,---,0.00,VWS V14.00,2013-02-18 04:45:00,
2013-02-17 23:50:00,18.5,6.2,29.63,West,264,1.0,4.0,58,0.00,,---,0.00,VWS V14.00,2013-02-18 04:50:00,
2013-02-17 23:55:00,18.4,5.3,29.63,West,275,4.0,7.0,56,0.00,,---,0.00,VWS V14.00,2013-02-18 04:55:00,